Location: Ashtead
(51.3000°N, 0.3000°W)
Time: 09:52:15
(UTC+00:00)

Cosmos 2266 Rocket - Pass Details

Date: 26 September 2023
Orbit: 933 x 1008 km, 82.9° (Epoch: 09 December)

Event Time Altitude Azimuth Distance (km) Brightness Sun altitude
Exits shadow 04:08:00 13° 205° (SSW) 2,488 5.7 -16.9°
Maximum altitude 04:13:32 62° 284° (WNW) 1,115 4.0 -16.1°
Drops below altitude 10° 04:19:54 10° 5° (N) 2,790 6.7 -15.2°
Sets 04:22:30 0° 9° (N) 3,749 7.4 -14.8°
